When you browse on this site, cookies collect data to enhance your experience and personalize the content and advertising you see.
Visit our Privacy Policy to learn more. By continuing to use the site, you agree to this use of cookies and data.
  • In Hungary
  • List of Countries
  • For 7 days
  • Water Temperature
  • Satellite Maps
  • Weather Map
  • News
  • Weather Widgets
  • user-avatar
    Login

    Hourly Weather Lapa

    Today, 19 January, Saturday

    Time Temperature Precipitation Wind Pressure Humidity
    00:00 +19°C° 0 mm 0 mps 682 mmHg 93%
    01:00 +19°C° 0 mm 0 mps 682 mmHg 94%
    02:00 +21°C° 0 mm 1 mps 681 mmHg 94%
    03:00 +21°C° 0 mm 1 mps 681 mmHg 95%
    04:00 +21°C° 0 mm 1 mps 681 mmHg 95%
    05:00 +21°C° 0 mm 1 mps 681 mmHg 95%
    06:00 +21°C° 0 mm 1 mps 681 mmHg 96%
    07:00 +23°C° 0 mm 1 mps 681 mmHg 89%
    08:00 +24°C° 0 mm 2 mps 682 mmHg 82%
    09:00 +26°C° 0 mm 2 mps 683 mmHg 75%
    10:00 +28°C° 0.1 mm 2 mps 683 mmHg 69%
    11:00 +29°C° 0.1 mm 2 mps 683 mmHg 63%
    12:00 +31°C° 0.1 mm 2 mps 683 mmHg 57%
    13:00 +30°C° 1.5 mm 2 mps 682 mmHg 63%
    14:00 +30°C° 1.5 mm 1 mps 682 mmHg 68%
    15:00 +29°C° 1.5 mm 1 mps 681 mmHg 74%
    16:00 +28°C° 2.5 mm 1 mps 681 mmHg 80%
    17:00 +26°C° 2.5 mm 1 mps 681 mmHg 86%
    18:00 +25°C° 2.5 mm 1 mps 681 mmHg 92%
    19:00 +24°C° 0.5 mm 1 mps 681 mmHg 93%
    20:00 +23°C° 0.5 mm 1 mps 682 mmHg 94%
    21:00 +22°C° 0.5 mm 1 mps 682 mmHg 95%
    22:00 +22°C° 1.2 mm 1 mps 682 mmHg 96%
    23:00 +21°C° 1.2 mm 2 mps 682 mmHg 96%

    Tomorrow, 20 January, Sunday

    Time Temperature Precipitation Wind Pressure Humidity
    00:00 +21°C° 1.2 mm 2 mps 683 mmHg 97%
    01:00 +20°C° 0.2 mm 2 mps 682 mmHg 97%
    02:00 +20°C° 0.2 mm 2 mps 682 mmHg 97%
    03:00 +20°C° 0.2 mm 2 mps 681 mmHg 98%
    04:00 +19°C° 0.4 mm 2 mps 682 mmHg 98%
    05:00 +19°C° 0.4 mm 2 mps 682 mmHg 98%
    06:00 +19°C° 0.4 mm 2 mps 682 mmHg 98%
    07:00 +20°C° 0.7 mm 2 mps 682 mmHg 97%
    08:00 +20°C° 0.7 mm 2 mps 683 mmHg 96%
    09:00 +20°C° 0.7 mm 2 mps 683 mmHg 95%
    10:00 +23°C° 0.2 mm 2 mps 683 mmHg 89%
    11:00 +24°C° 0.2 mm 2 mps 683 mmHg 83%
    12:00 +26°C° 0.2 mm 2 mps 683 mmHg 77%
    13:00 +26°C° 1.4 mm 2 mps 683 mmHg 80%
    14:00 +26°C° 1.4 mm 2 mps 683 mmHg 82%
    15:00 +27°C° 1.4 mm 1 mps 682 mmHg 85%
    16:00 +26°C° 1.8 mm 1 mps 682 mmHg 87%
    17:00 +25°C° 1.8 mm 1 mps 682 mmHg 90%
    18:00 +25°C° 1.8 mm 1 mps 682 mmHg 93%
    19:00 +24°C° 0.9 mm 2 mps 682 mmHg 94%
    20:00 +23°C° 0.9 mm 2 mps 682 mmHg 96%
    21:00 +21°C° 0.9 mm 2 mps 683 mmHg 98%
    22:00 +21°C° 1.7 mm 2 mps 683 mmHg 98%
    23:00 +20°C° 1.7 mm 2 mps 683 mmHg 98%

    Day after tomorrow, 21 January, Monday

    Time Temperature Precipitation Wind Pressure Humidity
    00:00 +20°C° 1.7 mm 2 mps 683 mmHg 98%
    01:00 +20°C° 0.1 mm 2 mps 683 mmHg 99%
    02:00 +21°C° 0.1 mm 1 mps 682 mmHg 99%
    03:00 +21°C° 0.1 mm 1 mps 681 mmHg 99%
    04:00 +21°C° 0 mm 1 mps 682 mmHg 99%
    05:00 +20°C° 0 mm 2 mps 682 mmHg 98%
    06:00 +20°C° 0 mm 2 mps 682 mmHg 98%
    07:00 +23°C° 0 mm 2 mps 683 mmHg 93%
    08:00 +24°C° 0 mm 2 mps 683 mmHg 88%
    09:00 +25°C° 0 mm 2 mps 684 mmHg 83%
    10:00 +27°C° 0.7 mm 2 mps 684 mmHg 80%
    11:00 +28°C° 0.7 mm 2 mps 684 mmHg 78%
    12:00 +29°C° 0.7 mm 2 mps 684 mmHg 75%
    13:00 +29°C° 1 mm 2 mps 683 mmHg 75%
    14:00 +29°C° 1 mm 2 mps 683 mmHg 75%
    15:00 +29°C° 1 mm 2 mps 682 mmHg 75%
    16:00 +28°C° 1.5 mm 2 mps 682 mmHg 79%
    17:00 +27°C° 1.5 mm 2 mps 682 mmHg 84%
    18:00 +26°C° 1.5 mm 2 mps 682 mmHg 89%
    19:00 +25°C° 0.2 mm 2 mps 682 mmHg 91%
    20:00 +24°C° 0.2 mm 2 mps 683 mmHg 93%
    21:00 +23°C° 0.2 mm 1 mps 683 mmHg 94%
    22:00 +22°C° 0 mm 1 mps 683 mmHg 95%
    23:00 +22°C° 0 mm 1 mps 683 mmHg 96%

    22 January, Tuesday

    Time Temperature Precipitation Wind Pressure Humidity
    00:00 +22°C° 0 mm 1 mps 683 mmHg 97%
    01:00 +22°C° 0 mm 1 mps 683 mmHg 97%
    02:00 +21°C° 0 mm 1 mps 682 mmHg 97%
    03:00 +21°C° 0 mm 1 mps 682 mmHg 98%
    04:00 +21°C° 0 mm 1 mps 682 mmHg 98%
    05:00 +19°C° 0 mm 0 mps 682 mmHg 98%
    06:00 +18°C° 0 mm 0 mps 682 mmHg 98%
    07:00 +21°C° 0 mm 0 mps 683 mmHg 91%
    08:00 +25°C° 0 mm 1 mps 684 mmHg 85%
    09:00 +27°C° 0 mm 1 mps 685 mmHg 78%
    10:00 +28°C° 0 mm 1 mps 685 mmHg 69%
    11:00 +30°C° 0 mm 1 mps 684 mmHg 61%
    12:00 +32°C° 0 mm 1 mps 684 mmHg 52%
    13:00 +32°C° 0.1 mm 1 mps 684 mmHg 56%
    14:00 +32°C° 0.1 mm 1 mps 683 mmHg 59%
    15:00 +31°C° 0.1 mm 1 mps 683 mmHg 63%
    16:00 +29°C° 2.1 mm 1 mps 683 mmHg 71%
    17:00 +28°C° 2.1 mm 2 mps 683 mmHg 79%
    18:00 +26°C° 2.1 mm 2 mps 683 mmHg 88%
    19:00 +25°C° 1.2 mm 2 mps 683 mmHg 90%
    20:00 +24°C° 1.2 mm 1 mps 683 mmHg 92%
    21:00 +23°C° 1.2 mm 1 mps 684 mmHg 94%
    22:00 +23°C° 0 mm 1 mps 684 mmHg 95%
    23:00 +23°C° 0 mm 1 mps 683 mmHg 96%

    23 January, Wednesday

    Time Temperature Precipitation Wind Pressure Humidity
    00:00 +22°C° 0 mm 1 mps 683 mmHg 97%
    01:00 +22°C° 0 mm 1 mps 683 mmHg 97%
    02:00 +22°C° 0 mm 1 mps 683 mmHg 97%
    03:00 +22°C° 0 mm 1 mps 682 mmHg 98%
    04:00 +21°C° 0 mm 1 mps 682 mmHg 98%
    05:00 +21°C° 0 mm 1 mps 683 mmHg 98%
    06:00 +19°C° 0 mm 0 mps 683 mmHg 98%
    07:00 +23°C° 0 mm 1 mps 683 mmHg 90%
    08:00 +25°C° 0 mm 1 mps 684 mmHg 83%
    09:00 +27°C° 0 mm 1 mps 685 mmHg 75%
    10:00 +29°C° 0.1 mm 1 mps 685 mmHg 67%
    11:00 +31°C° 0.1 mm 1 mps 685 mmHg 59%
    12:00 +33°C° 0.1 mm 1 mps 685 mmHg 50%
    13:00 +33°C° 0.1 mm 1 mps 684 mmHg 52%
    14:00 +33°C° 0.1 mm 1 mps 683 mmHg 54%
    15:00 +32°C° 0.1 mm 1 mps 683 mmHg 56%
    16:00 +31°C° 0.1 mm 1 mps 683 mmHg 62%
    17:00 +29°C° 0.1 mm 1 mps 682 mmHg 68%
    18:00 +28°C° 0.1 mm 1 mps 682 mmHg 75%
    19:00 +26°C° 2 mm 1 mps 683 mmHg 80%
    20:00 +25°C° 2 mm 2 mps 683 mmHg 86%
    21:00 +24°C° 2 mm 2 mps 683 mmHg 92%
    22:00 +23°C° 0.3 mm 1 mps 683 mmHg 92%
    23:00 +23°C° 0.3 mm 1 mps 683 mmHg 93%

    24 January, Thursday

    Time Temperature Precipitation Wind Pressure Humidity
    00:00 +21°C° 0.3 mm 0 mps 683 mmHg 94%
    01:00 +20°C° 0 mm 0 mps 682 mmHg 95%
    02:00 +20°C° 0 mm 0 mps 682 mmHg 95%
    03:00 +22°C° 0 mm 1 mps 682 mmHg 96%
    04:00 +21°C° 0 mm 1 mps 682 mmHg 95%
    05:00 +19°C° 0 mm 0 mps 682 mmHg 95%
    06:00 +19°C° 0 mm 0 mps 682 mmHg 95%
    07:00 +23°C° 0 mm 1 mps 683 mmHg 86%
    08:00 +26°C° 0 mm 1 mps 683 mmHg 77%
    09:00 +28°C° 0 mm 1 mps 684 mmHg 68%
    10:00 +29°C° 0.9 mm 1 mps 684 mmHg 65%
    11:00 +30°C° 0.9 mm 2 mps 684 mmHg 62%
    12:00 +31°C° 0.9 mm 2 mps 684 mmHg 60%
    13:00 +30°C° 1.9 mm 2 mps 683 mmHg 67%
    14:00 +29°C° 1.9 mm 2 mps 683 mmHg 73%
    15:00 +28°C° 1.9 mm 2 mps 682 mmHg 80%
    16:00 +27°C° 2 mm 2 mps 682 mmHg 83%
    17:00 +26°C° 2 mm 2 mps 682 mmHg 87%
    18:00 +25°C° 2 mm 3 mps 682 mmHg 90%
    19:00 +24°C° 0.5 mm 3 mps 683 mmHg 92%
    20:00 +23°C° 0.5 mm 2 mps 683 mmHg 95%
    21:00 +21°C° 0.5 mm 2 mps 684 mmHg 97%
    22:00 +20°C° 0 mm 2 mps 684 mmHg 97%
    23:00 +20°C° 0 mm 2 mps 684 mmHg 98%
    Show more